Location: Savignano sul Rubicone
(44.0950°N, 12.4090°E)
Time: 04:39:30
(UTC+02:00)

ISS - Visible Passes

Search period start: 01 October 2020 00:00
Search period end: 11 October 2020 00:00
Orbit: 419 x 421 km, 51.6° (Epoch: 01 October)

Date Brightness Start Highest point End Pass type
(mag) Time Alt. Az. Time Alt. Az. Time Alt. Az.
01 Oct -2.3 19:30:01 10° NW 19:32:56 26° NNE 19:35:42 11° ENE visible
01 Oct -2.0 21:06:43 10° WNW 21:08:40 32° WNW 21:08:40 32° WNW visible
02 Oct -3.6 20:19:26 10° NW 20:22:46 58° NNE 20:23:16 51° ENE visible
03 Oct -3.1 19:32:10 10° NW 19:35:24 41° NNE 19:37:54 15° E visible
03 Oct -1.5 21:09:05 10° WNW 21:10:53 25° W 21:10:53 25° W visible
04 Oct -3.3 20:21:37 10° WNW 20:24:56 57° SW 20:25:36 46° S visible
05 Oct -3.8 19:34:15 10° WNW 19:37:38 89° NE 19:40:25 14° ESE visible
05 Oct -0.8 21:12:20 10° WSW 21:13:24 13° WSW 21:13:24 13° WSW visible
06 Oct -1.5 20:24:13 10° W 20:26:51 21° SW 20:28:20 16° S visible
07 Oct -2.2 19:36:32 10° WNW 19:39:38 34° SW 19:42:42 10° SSE visible
09 Oct -0.7 19:39:45 10° WSW 19:41:22 13° SW 19:42:58 10° SSW visible
